Hourly Data Report for October 11, 2020

OTTAWA INTL A
ONTARIO
Current Station Operator: NAVCAN

45°19'00.000" N
75°40'00.000" W
114.90 m
6106001
71628
YOW

Download Data

Hourly Data (October 2020)
Hourly Data Report for October 11, 2020
TIME Temp Definition
°C
Dew Point Definition
°C
Rel Hum Definition
%
Wind Dir Definition
10's deg

Wind Spd Definition
km/h
Visibility Definition
km
Stn Press Definition
kPa
Hmdx Definition


Wind Chill Definition


Weather Definition


00:00 6.9 0.7 65 34 23 24.1 100.42     LegendNANA
01:00 6.3 1.1 69 34 24 24.1 100.50     Clear
02:00 5.1 0.8 73 33 17 24.1 100.63     LegendNANA
03:00 4.8 0.2 72 34 18 24.1 100.72     LegendNANA
04:00 3.9 -0.2 75 34 10 24.1 100.79     Clear
05:00 3.4 0.4 80 34 16 24.1 100.91     LegendNANA
06:00 1.9 -0.1 87 35 9 24.1 100.99     LegendNANA
07:00 2.9 0.7 85 34 8 24.1 101.10     Clear
08:00 4.7 0.9 76 1 18 24.1 101.17     LegendNANA
09:00 5.7 1.3 73 2 13 24.1 101.23     LegendNANA
10:00 7.0 -0.1 61 3 17 24.1 101.27     Mainly Clear
11:00 7.7 -0.8 55 5 13 24.1 101.28     LegendNANA
12:00 8.7 -1.6 48 3 9 24.1 101.27     LegendNANA
13:00 10.1 -0.7 47 6 11 24.1 101.20     Clear
14:00 10.0 -1.9 43 4 9 24.1 101.18     LegendNANA
15:00 10.1 -3.8 37 10 7 24.1 101.17     LegendNANA
16:00 10.1 -1.3 45 10 5 24.1 101.18     Clear
17:00 8.6 -1.9 48 7 13 24.1 101.14     LegendNANA
18:00 4.8 -0.9 67 5 17 24.1 101.13     LegendNANA
19:00 5.2 -1.7 61 7 13 24.1 101.19     Clear
20:00 4.6 -1.6 64 8 14 24.1 101.21     LegendNANA
21:00 3.9 -1.7 66 8 14 24.1 101.21     LegendNANA
22:00 2.8 -2.4 69 9 11 24.1 101.22     Clear
23:00 2.4 -2.3 71 6 12 24.1 101.18     LegendNANA

Notes on Data Quality.

Legend

  • E = Estimated
  • M = Missing
  • NA = Not Available*
  • [empty] = Indicates an unobserved value
Date modified: